Location: Gollag?dem
(17.0207°N, 80.7261°E)
Time: 07:21:49
(UTC+00:00)

Cosmos 1892 Rocket - Pass Details

Date: 03 August 2024
Orbit: 602 x 629 km, 82.5° (Epoch: 10 September)

Event Time Altitude Azimuth Distance (km) Brightness Sun altitude
Exits shadow 14:48:46 68° 74° (ENE) 670 3.5 -22.9°
Drops below altitude 10° 14:52:57 10° 11° (N) 1,983 6.3 -23.7°
Sets 14:55:10 0° 8° (N) 2,885 7.2 -24.2°
